Regional Weather Roundup
Issued by NWS

Home | Current Version | Previous Version | Text Only | Print | Product List | Glossary On
Versions: 1 2 3 4 5 6 7 8 9 10 11 12 13 14 15 16 17 18 19 20 21 22 23 24 25 26 27 28 29 30 31 32 33 34 35 36 37 38 39 40 41 42 43 44 45 46 47 48 49 50
000
ASUS44 KOUN 240510
RWROK

WEATHER ROUNDUP FOR OKLAHOMA
NATIONAL WEATHER SERVICE NORMAN OK
1200 AM CDT MON APR 24 2017

NOTE: "FAIR" INDICATES FEW OR NO CLOUDS BELOW 12,000 FEET WITH NO
      SIGNIFICANT WEATHER AND/OR OBSTRUCTIONS TO VISIBILITY.

OKZ001>007-009>012-014-015-017-240600-
NORTHWEST OKLAHOMA AND THE PANHANDLE

CITY           SKY/WX    TMP DP  RH WIND       PRES   REMARKS
GAGE           CLEAR     54  37  52 S15       29.90F
GUYMON         CLEAR     56  33  42 S21G30    29.81F
ENID/WOODRING  CLEAR     45  41  87 SE6       29.94F
$$

OKZ016-021>023-033>039-044-045-240600-
SOUTHWEST OKLAHOMA

CITY           SKY/WX    TMP DP  RH WIND       PRES   REMARKS
LAWTON/REGL    PTCLDY    51  43  74 SE6       29.97F
LAWTON/FT SILL PTCLDY    50  42  72 S6        29.95F
FREDERICK      CLEAR     56  41  57 SE12      29.94F
CLINTON        CLEAR     52  39  61 SE12      29.95F
HOBART         CLEAR     51  40  65 S10       29.97F
ALTUS AFB      CLEAR     48  38  68 SE6       29.96F
$$

OKZ018>020-024>031-240600-
CENTRAL OKLAHOMA

CITY           SKY/WX    TMP DP  RH WIND       PRES   REMARKS
OKLAHOMA CITY  PTCLDY    48  39  71 SE6       29.97F
OKC/WILEY POST CLEAR     54  39  57 SE8       29.97F
OKC/TINKER AFB CLEAR     52  38  58 SE5       29.96F
STILLWATER     PTCLDY    46  40  79 S3        29.97F
GUTHRIE        CLEAR     51  38  60 SE6       29.97F
$$

OKZ008-013-054>072-240600-
NORTHEAST OKLAHOMA

CITY           SKY/WX    TMP DP  RH WIND       PRES   REMARKS
TULSA          CLEAR     50  45  83 CALM      29.97F
TULSA/JONES    CLEAR     48  44  86 CALM      29.98F
PONCA CITY     CLOUDY    52  38  58 SE7       29.96F
BARTLESVILLE   CLOUDY    42  40  92 CALM      29.99F
MUSKOGEE       CLEAR     47  43  86 SW3       29.99F
$$

OKZ032-040>043-046>053-073>077-240600-
SOUTH CENTRAL/SOUTHEAST OKLAHOMA

CITY           SKY/WX    TMP DP  RH WIND       PRES   REMARKS
ARDMORE/DWNTWN CLEAR     46  41  81 CALM      30.00F
MCALESTER      PTCLDY    45  43  93 CALM      29.99F
$$




USA.gov is the U.S. government's official web portal to all federal, state and local government web resources and services.